1st Responders/1st Detectors/Storm Spotters Weather Summary for Whitley County, KY

Forecast Maps


Reg. NEXRAD Animation


National Fire Danger: Day 1 & 2 Map

Current NWS Watch/Warnings

SPC Convective Day 1 Outlook


Day 2 Outlook

(Click images to enlarge|Page will refresh every 5 minutes)
UK Ag. Weather Center Desktop Severe Weather Service[HERE]
Whitley County, KY Hazardous Weather Outlook Webcast
(9 AM to 9 PM Mon-Fri)
[Fast]
[Dial-up]


UKAWC 1st Detectors/1st Responders Precision Weather Forecast For WHITLEY County, Kentucky
(based on the NWS County Digital Forecast)

ISSUED AT 21:00 UTC ON MONDAY AUG 03 2020
DAY MONDAY
EDT 3HR 6P 7P
MAX/MIN -- 86°
TEMP 83° 83°
SKY COVER 44% 43%
Clouds
DEW PT 63° 65°
RH 50% 52%
POP 12HR -- --
RAIN/SNOW (liq.equ) -- --
SNOWFALL -- --
WIND SPEED(MPH) 2 2
WIND Gust(MPH) 7 8
WIND DIR S N
DEW -- --
HeatIndex 85 85
Rain Showers Slight Chance Slight Chance
Thunder Storm Slight Chance Slight Chance
Fog -- --
WIND CHILL -- --
SPRAY COND
DRY COND
LIVESTOCK HEATSTRESS 76.34 76.61



DAY TUESDAY WEDNESDAY THURSDAY FRIDAY SATURDAY SUNDAY
EDT 6HR 8P 9P 10P 11P MIDN 1A 2A 3A 4A 5A 6A 7A 8A 9A 10A 11A NOON 1P 2P 3P 4P 5P 6P 7P 8P 9P 10P 11P MIDN 1A 2A 3A 4A 5A 8A 11A 2P 5P 8P 2A 8A 2P 8P 2A 8A 2P 8P 2A 8A 2P 8P 2A 8A 2P 8P
MAX/MIN -- -- -- -- -- -- -- -- -- -- -- -- 63° -- -- -- -- -- -- -- -- -- -- 83° -- -- -- -- -- -- -- -- -- -- 61° -- -- 83° -- -- 61° 85° -- -- 63° 88° -- -- 65° 88° -- -- 67° 90° --
TEMP 81° 76° 74° 70° 67° 67° 65° 65° 63° 63° 63° 63° 65° 68° 72° 76° 77° 79° 81° 83° 83° 83° 81° 79° 76° 72° 70° 67° 65° 63° 63° 63° 63° 61° 61° 72° 79° 83° 79° 65° 65° 81° 77° 65° 65° 85° 79° 68° 68° 85° 81° 70° 70° 85° 81°
SKY COVER 40% 37% 33% 31% 35% 40% 45% 48% 51% 54% 59% 64% 67% 65% 60% 55% 52% 50% 49% 49% 49% 48% 45% 41% 39% 42% 46% 50% 52% 53% 53% 54% 55% 55% 56% 58% 54% 53% 35% 28% 41% 36% 23% 14% 11% 27% 20% 24% 35% 39% 31% 36% 44% 52% 53%
Clouds
DEW PT 65° 65° 65° 65° 65° 65° 65° 65° 63° 63° 63° 63° 63° 65° 67° 67° 67° 67° 67° 67° 67° 67° 67° 67° 67° 67° 67° 67° 65° 63° 63° 63° 63° 61° 61° 67° 65° 65° 65° 61° 61° 65° 63° 63° 63° 65° 65° 65° 65° 67° 67° 67° 67° 70° 70°
RH 60% 69% 75% 84% 89% 93% 96% 100% 100% 99% 100% 99% 96% 90% 83% 76% 68% 64% 60% 58% 58% 58% 64% 66% 73% 83% 90% 100% 99% 100% 99% 100% 99% 100% 99% 84% 62% 57% 59% 89% 90% 56% 61% 93% 92% 51% 62% 90% 89% 53% 64% 93% 93% 59% 69%
POP 12HR 24% -- -- -- -- -- -- -- -- -- -- -- 23% -- -- -- -- -- -- -- -- -- -- -- 38% -- -- -- -- -- -- -- -- -- 15% -- -- -- 25% -- 6% -- 14% -- 9% -- 18% -- 14% -- 23% -- 20% -- 41%
RAIN/SNOW (liq.equ) 0.02in -- -- -- -- -- 0.01in -- -- -- -- -- 0.00in -- -- -- -- -- 0.01in -- -- -- -- -- 0.07in -- -- -- -- -- 0.01in -- -- -- 0.00in -- 0.00in -- 0.02in 0.00in 0.00in -- -- -- -- -- -- -- -- -- -- -- -- -- --
SNOWFALL 0in -- -- -- -- -- 0in -- -- -- -- -- 0in -- -- -- -- -- 0in -- -- -- -- -- 0in -- -- -- -- -- 0in -- -- -- 0in -- 0in -- 0in 0in 0in -- -- -- -- -- -- -- -- -- -- -- -- -- --
WIND SPEED(MPH) 1 1 2 1 1 1 1 0 0 0 0 0 0 1 2 5 6 6 7 6 6 7 6 5 2 2 1 1 1 1 1 1 1 1 1 1 1 5 2 1 0 1 1 0 0 1 1 0 1 2 1 0 1 2 1
WIND DIR E W N E SE SW W W S S S S SW SW SW W W W W W W W W NW NW W NW NW N N N N N N NE NE N N N NE NE NW N E SE W N SE S W N SE S W S
HeatIndex 83 76 74 70 67 67 65 65 63 63 63 63 65 68 72 76 77 82 84 85 85 85 83 79 76 72 70 67 65 63 63 63 63 61 61 72 82 85 81 65 65 83 77 65 65 86 82 68 68 88 83 70 70 90 84
Rain Showers Slight Chance Slight Chance Slight Chance Slight Chance -- -- -- -- -- -- -- -- -- -- -- -- Slight Chance Chance Chance Chance Chance Chance Chance Slight Chance Slight Chance -- -- -- -- -- -- -- -- -- -- -- -- Chance -- -- -- -- -- -- -- -- -- -- -- Slight Chance Slight Chance Slight Chance Slight Chance Chance Chance
Thunder Storm Slight Chance Slight Chance Slight Chance -- -- -- -- -- -- -- -- -- -- -- -- -- Slight Chance Slight Chance Chance Chance Chance Chance Slight Chance Slight Chance Slight Chance -- -- -- -- -- -- -- -- -- -- -- -- Slight Chance -- -- -- -- -- -- -- -- -- -- -- Slight Chance Slight Chance Slight Chance Slight Chance Chance Chance
Fog -- -- -- -- -- -- Patchy Patchy Patchy Patchy Patchy Patchy Patchy Patchy -- -- -- -- -- -- -- -- -- -- -- -- -- -- -- -- -- -- -- -- -- -- -- -- -- -- -- -- -- -- -- -- -- -- -- -- -- -- -- -- --
WIND CHILL -- -- -- -- -- -- -- -- -- -- -- -- -- -- -- -- -- -- -- -- -- -- -- -- -- -- -- -- -- -- -- -- -- -- -- -- -- -- -- -- -- -- -- -- -- -- -- -- -- -- -- -- -- -- --
SPRAY COND
DRY COND
LIVESTOCK HEATSTRESS 76.12 73.07 71.91 69.01 66.50 66.68 64.86 65.00 63.00 62.98 63.00 62.98 64.86 67.49 70.77 73.73 73.80 75.00 76.12 77.41 77.41 77.41 76.60 75.22 73.45 70.77 69.38 67.00 64.97 63.00 62.98 63.00 62.98 61.00 60.99 70.84 74.78 77.28 74.44 64.62 64.66 75.63 73.10 64.76 64.73 77.94 74.78 67.49 67.44 78.23 76.60 69.57 69.57 79.09 77.21

Click on individual weather variable above in left-hand column (ie., TEMP, RH, QPF 12HR) to view state forecast maps






NWS 48 Hr. Forecast Maps,

Regional Hourly Observations For WHITLEY County, Kentucky
Issued at 500 PM EDT MON AUG 03 2020
...EASTERN KENTUCKY...
  
CITY           SKY/WX    TMP DP  RH WIND       PRES   REMARKS
JACKSON        MOSUNNY   84  61  45 VRB3      29.97F                  
LONDON         MOSUNNY   83  60  45 SW6       29.97S                  
SOMERSET*      MOSUNNY   84  52  32 W5        29.96S                  
MONTICELLO*    MOSUNNY   86  65  49 VRB6      29.97S                  
WILLIAMSBURG*  FAIR      82  63  51 S5        29.97R                  
MIDDLESBORO*   PTSUNNY   84  66  53 S5        29.97S                  
HARLAN APT*    CLOUDY    78  66  66 SE3       29.99S                  
PIKE CO APT*   FAIR      81  64  57 SE5       29.98F                  
BIG SANDY APT* CLOUDY    85  68  56 CALM      29.97F                  
MOREHEAD APT*  CLEAR     82  57  42 SW6       29.97S                  
ASHLAND*       SUNNY     85  62  46 CALM      29.94F                  


Current NOWCAST not available:
Nowcasts are not issued routinely during fair weather. Only when
precipitation or other significant weather is occuring in this county will these
forecasts be issued. Currently, there is no short term forecast in effect.


Fire Weather Forecast For WHITLEY County, KY
Provided by the National Weather Service:

Issued at: Mon Aug 3 17:05:01 EDT 2020

557 AM EDT Mon Aug 3 2020

                      Today        Tonight      Tue          

Cloud Cover           Pcldy        Pcldy        Pcldy        
Chance precip (%)     30           20           50           
Precip type           tstms        tstms        tstms        
Temp (24H TREND)      86 (+8)      60 (-2)      83           
Rh % (24H TREND)      45 (-11)     100 (+2)     54           
20ftwnd-AM(mph)       Lgt/Var                   Lgt/Var      
20ftwnd-PM(mph)       SW 2-6       Lgt/Var      NW 2-6       
Precip duration       1            1            1            
Precip begin                                                 
Precip end                                                   
Precip amount         0.03         0.01         0.04         
LAL                   3            3            3            
Haines Index (MID)    3                         3            
Mixing hgt(ft-AGL)    5900                      4800         
Transport wnd (mph)   SW  8                     W  8         
Vent rate (kt-ft)     41254                     33803        
ADI Early             27 Fair      2 Very Poor  35 Fair      
ADI Late              34 Fair      3 Very Poor  24 Fair      
Max LVORI Early       6            9            9            
Max LVORI Late        3            9            3            

Remarks...None.


SPC's Fire Weather Web Tool (Excellent!), SPC's Fire Weather Outlooks, NWS Fire Weather WEB, Fire Danger Class Map,
Keetch-Byram Drought Index, ROMAN Web, Haines Index ,
WFAS's 10-hr Dead Fuel Moist., WFAS's 100-hr Dead Fuel Moist., Probablity of Ignition, Visual blackness Map, Palmer Drought Index, HPC's Rainfall Forecast Maps


Hazardous Weather Outlook For WHITLEY County, Kentucky
428 AM EDT Mon Aug 3 2020

 DAY ONE  Today and Tonight.

Thunderstorms are possible, mainly during the afternoon and
evening hours.

 DAYS TWO THROUGH SEVEN  Tuesday through Sunday.

Thunderstorms are possible at times from Tuesday through 
Sunday, and will be most prevalent during the afternoon and 
evening hours each day. 

 SPOTTER INFORMATION STATEMENT  

Spotter activation is not anticipated.

Latest WHITLEY County, Kentucky Watches, Warnings and Advisories.
Additional Drought Info.: UKAWC Drought Page, Kentucky Drought Watch


7-Day Forecast For WHITLEY County, KY

TONIGHT
Partly cloudy with a slight chance of showers and thunderstorms in the evening, then partly cloudy with a slight chance of showers. Mostly cloudy. Patchy fog late. Lows in the lower 60s. Light winds. Chance of rain 20 percent.

TUESDAY
Mostly sunny. Patchy fog early. A chance of showers and a slight chance of thunderstorms late in the morning. A chance of showers and thunderstorms in the afternoon. Highs in the lower 80s. Light winds. Chance of rain 40 percent.

TUESDAY NIGHT
Partly cloudy with a 20 percent chance of showers and thunderstorms in the evening, then partly cloudy. Lows in the lower 60s. Light winds.

WEDNESDAY
Partly sunny. A 30 percent chance of showers and thunderstorms in the afternoon. Highs in the lower 80s. Light winds.

WEDNESDAY NIGHT
Partly cloudy. Areas of fog late. Lows in the lower 60s. Light winds.

THURSDAY
Mostly sunny with a 20 percent chance of showers and thunderstorms. Areas of fog. Highs in the mid 80s.

THURSDAY NIGHT
Mostly clear. Areas of fog. Lows in the lower 60s.

FRIDAY
Mostly sunny. Highs in the upper 80s.

FRIDAY NIGHT
Mostly clear. Areas of fog. Lows in the mid 60s.

SATURDAY
Mostly sunny with a 20 percent chance of showers and thunderstorms. Highs in the upper 80s.

SATURDAY NIGHT
Partly cloudy. Areas of fog. Lows in the upper 60s.

SUNDAY
Partly sunny with a 30 percent chance of showers and thunderstorms. Highs around 90.

SUNDAY NIGHT
Mostly cloudy with a 30 percent chance of showers and thunderstorms. Patchy fog. Lows in the upper 60s.

MONDAY
Partly sunny with a 50 percent chance of showers and thunderstorms. Highs in the upper 80s.

Ag Weather Center, Department of Biosystems & Agricultural Engineering, University of Kentucky